Fremont, MI

2:42 PM EST on November 13, 2019 (GMT -0500)
Fremont

Weather History for KFFX - September, 2019

Change the Weather History Date:

Thursday, September 19, 2019

  Actual Average (WUND) Record (WUND)
Temperature  
Mean Temperature 69 °F -  
Max Temperature 80 °F - - (-1)
Min Temperature 58 °F - - (-1)
Cooling Degree Days 4    
Growing Degree Days 19 (Base 50)    
Moisture  
Dew Point 51 °F    
Average Humidity 56    
Maximum Humidity 88    
Minimum Humidity 29    
Precipitation  
Precipitation 0.00 in - - ()
Sea Level Pressure  
Sea Level Pressure 30.11 in    
Wind  
Wind Speed 4 mph ()    
Max Wind Speed 8 mph    
Max Gust Speed -    
Visibility 9.8 miles    
Events      
Averages and records for this station are not official NWS values.
T = Trace of Precipitation, MM = Missing Value Source: Averaged Metar Reports

Daily Weather History Graph

Daily Weather History Graph

Search for Another Location

Airport or City:

Astronomy

Sep. 19, 2019 Rise Set
Actual Time 7:27 AM EDT 7:47 PM EDT
Civil Twilight 6:59 AM EDT 8:15 PM EDT
Nautical Twilight 6:25 AM EDT 8:49 PM EDT
Astronomical Twilight 5:50 AM EDT 9:23 PM EDT
Moon 10:46 PM EDT (9/19) 12:38 PM EDT (9/19)
Length of Visible Light 13h 16m
Length of Day
12h 19m
Waning Gibbous, 74% of the Moon is Illuminated
Sep 19
Waning Gibbous
Sep 21
Last Quarter
Sep 28
New
Oct 5
First Quarter
Oct 13
Full

Hourly Weather History & Observations

Time (EDT) Temp. Dew Point Humidity Pressure Visibility Wind Dir Wind Speed Gust Speed Precip Events Conditions
12:15 AM 66.7 °F 50.0 °F 55% 30.12 in 10.0 mi SSE 5.8 mph - N/A   Clear
12:16 AM 66.7 °F 49.8 °F 54% 30.12 in 10.0 mi SSE 4.6 mph - N/A   Clear
12:35 AM 66.0 °F 49.3 °F 55% 30.12 in 10.0 mi SSE 4.6 mph - N/A   Clear
12:36 AM 66.0 °F 49.3 °F 55% 30.12 in 10.0 mi SSE 5.8 mph - N/A   Clear
12:58 AM 65.3 °F 49.1 °F 56% 30.12 in 10.0 mi SE 3.5 mph - N/A   Clear
1:17 AM 64.0 °F 49.5 °F 59% 30.13 in 10.0 mi SE 3.5 mph - N/A   Clear
1:36 AM 62.1 °F 50.5 °F 66% 30.13 in 10.0 mi SE 3.5 mph - N/A   Clear
1:55 AM 62.2 °F 50.0 °F 64% 30.13 in 10.0 mi SE 4.6 mph - N/A   Clear
2:15 AM 61.9 °F 49.8 °F 65% 30.13 in 10.0 mi SE 5.8 mph - N/A   Clear
2:20 AM 62.1 °F 49.5 °F 63% 30.13 in 10.0 mi SE 5.8 mph - N/A   Clear
2:38 AM 62.6 °F 48.7 °F 60% 30.13 in 10.0 mi SE 5.8 mph - N/A   Clear
2:56 AM 61.9 °F 48.6 °F 62% 30.13 in 10.0 mi SE 4.6 mph - N/A   Clear
3:15 AM 61.3 °F 48.4 °F 62% 30.13 in 10.0 mi SE 4.6 mph - N/A   Clear
3:16 AM 61.3 °F 48.4 °F 62% 30.13 in 10.0 mi SE 4.6 mph - N/A   Clear
3:35 AM 60.8 °F 48.6 °F 64% 30.12 in 10.0 mi SE 4.6 mph - N/A   Clear
3:36 AM 60.8 °F 48.4 °F 64% 30.12 in 10.0 mi SE 5.8 mph - N/A   Clear
3:59 AM 61.0 °F 48.2 °F 63% 30.13 in 10.0 mi SSE 4.6 mph - N/A   Clear
4:17 AM 60.8 °F 48.2 °F 63% 30.12 in 10.0 mi SE 5.8 mph - N/A   Clear
4:35 AM 60.1 °F 48.6 °F 66% 30.12 in 10.0 mi Calm Calm - N/A   Clear
4:36 AM 60.1 °F 48.6 °F 66% 30.12 in 10.0 mi ESE 3.5 mph - N/A   Clear
4:55 AM 60.1 °F 48.7 °F 66% 30.12 in 10.0 mi ESE 4.6 mph - N/A   Clear
4:56 AM 60.1 °F 48.7 °F 66% 30.12 in 10.0 mi ESE 4.6 mph - N/A   Clear
5:15 AM 59.9 °F 48.7 °F 67% 30.12 in 10.0 mi ESE 3.5 mph - N/A   Clear
5:38 AM 59.2 °F 49.1 °F 69% 30.11 in 10.0 mi ESE 3.5 mph - N/A   Clear
5:56 AM 59.4 °F 49.1 °F 69% 30.11 in 10.0 mi SE 3.5 mph - N/A   Clear
6:15 AM 59.9 °F 49.1 °F 67% 30.10 in 10.0 mi SE 4.6 mph - N/A   Clear
6:35 AM 59.9 °F 48.6 °F 66% 30.10 in 10.0 mi SE 3.5 mph - N/A   Clear
6:59 AM 60.3 °F 48.2 °F 64% 30.10 in 10.0 mi SE 3.5 mph - N/A   Clear
7:17 AM 59.7 °F 48.2 °F 66% 30.11 in 10.0 mi ESE 5.8 mph - N/A   Clear
7:36 AM 59.2 °F 48.2 °F 67% 30.12 in 10.0 mi Calm Calm - N/A   Clear
7:55 AM 58.3 °F 48.2 °F 69% 30.13 in 10.0 mi Calm Calm - N/A   Clear
7:56 AM 58.3 °F 48.2 °F 69% 30.13 in 10.0 mi Calm Calm - N/A   Clear
8:15 AM 58.3 °F 49.5 °F 72% 30.13 in 10.0 mi Calm Calm - N/A   Clear
8:38 AM 60.3 °F 49.1 °F 67% 30.13 in 10.0 mi ESE 3.5 mph - N/A   Clear
8:56 AM 62.1 °F 49.3 °F 63% 30.13 in 10.0 mi SE 3.5 mph - N/A   Clear
9:15 AM 64.4 °F 48.4 °F 56% 30.14 in 10.0 mi ESE 3.5 mph - N/A   Clear
9:16 AM 64.4 °F 48.4 °F 56% 30.15 in 10.0 mi ESE 3.5 mph - N/A   Clear
9:35 AM 65.5 °F 48.4 °F 54% 30.15 in 10.0 mi SSE 3.5 mph - N/A   Clear
9:36 AM 65.7 °F 48.6 °F 54% 30.15 in 10.0 mi SSE 3.5 mph - N/A   Clear
9:58 AM 67.1 °F 48.4 °F 51% 30.15 in 10.0 mi Calm Calm - N/A   Clear
10:17 AM 68.4 °F 46.8 °F 46% 30.15 in 10.0 mi South 4.6 mph - N/A   Clear
10:35 AM 69.1 °F 47.3 °F 46% 30.15 in 10.0 mi South 4.6 mph - N/A   Clear
10:55 AM 70.7 °F 47.3 °F 43% 30.14 in 10.0 mi SSW 6.9 mph - N/A   Clear
10:56 AM 70.9 °F 47.1 °F 43% 30.14 in 10.0 mi SSW 6.9 mph - N/A   Clear
11:15 AM 71.8 °F 46.8 °F 41% 30.14 in 10.0 mi SSE 5.8 mph - N/A   Clear
11:19 AM 72.1 °F 46.9 °F 41% 30.14 in 10.0 mi South 4.6 mph - N/A   Clear
11:38 AM 73.6 °F 46.9 °F 39% 30.14 in 10.0 mi SSE 3.5 mph - N/A   Clear
11:56 AM 74.8 °F 45.1 °F 35% 30.13 in 10.0 mi SW 6.9 mph - N/A   Clear
12:15 PM 75.2 °F 46.0 °F 35% 30.13 in 10.0 mi SSW 5.8 mph - N/A   Clear
12:35 PM 76.1 °F 45.5 °F 34% 30.13 in 10.0 mi SW 8.1 mph - N/A   Clear
12:59 PM 77.5 °F 46.8 °F 34% 30.13 in 10.0 mi SSW 4.6 mph - N/A   Clear
1:17 PM 78.4 °F 46.2 °F 32% 30.12 in 10.0 mi WSW 5.8 mph - N/A   Clear
1:35 PM 79.0 °F 48.0 °F 34% 30.12 in 10.0 mi WSW 4.6 mph - N/A   Clear
1:36 PM 79.2 °F 47.8 °F 33% 30.12 in 10.0 mi WSW 4.6 mph - N/A   Clear
2:15 PM 78.8 °F 45.1 °F 30% 30.11 in 10.0 mi WSW 3.5 mph - N/A   Clear
2:38 PM 79.3 °F 45.3 °F 30% 30.10 in 10.0 mi West 3.5 mph - N/A   Clear
2:56 PM 80.2 °F 45.5 °F 29% 30.10 in 7.0 mi West 4.6 mph - N/A   Clear
3:35 PM 79.5 °F 45.5 °F 30% 30.09 in 7.0 mi SSW 4.6 mph - N/A   Clear
3:59 PM 78.8 °F 47.5 °F 33% 30.08 in 10.0 mi SW 4.6 mph - N/A   Clear
4:17 PM 78.1 °F 49.1 °F 36% 30.08 in 10.0 mi WSW 3.5 mph - N/A   Clear
4:35 PM 77.7 °F 49.6 °F 37% 30.08 in 10.0 mi WSW 3.5 mph - N/A   Clear
4:55 PM 78.8 °F 47.8 °F 34% 30.08 in 10.0 mi WSW 3.5 mph - N/A   Clear
5:15 PM 79.3 °F 48.4 °F 34% 30.07 in 7.0 mi South 4.6 mph - N/A   Clear
5:38 PM 79.0 °F 49.8 °F 36% 30.07 in 7.0 mi Calm Calm - N/A   Clear
5:56 PM 78.6 °F 50.4 °F 37% 30.07 in 10.0 mi South 4.6 mph - N/A   Clear
6:15 PM 76.3 °F 51.3 °F 41% 30.07 in 10.0 mi South 3.5 mph - N/A   Clear
6:16 PM 76.3 °F 51.4 °F 42% 30.07 in 10.0 mi South 3.5 mph - N/A   Clear
6:35 PM 74.8 °F 55.0 °F 50% 30.08 in 7.0 mi Calm Calm - N/A   Clear
6:36 PM 74.7 °F 55.2 °F 51% 30.08 in 7.0 mi Calm Calm - N/A   Clear
6:59 PM 74.3 °F 56.3 °F 53% 30.08 in 10.0 mi Calm Calm - N/A   Clear
7:17 PM 71.6 °F 58.6 °F 64% 30.08 in 10.0 mi Calm Calm - N/A   Clear
7:35 PM 70.7 °F 58.6 °F 66% 30.07 in 10.0 mi SSE 3.5 mph - N/A   Clear
7:55 PM 71.2 °F 57.9 °F 63% 30.07 in 10.0 mi SE 4.6 mph - N/A   Clear
7:56 PM 71.2 °F 57.7 °F 62% 30.07 in 10.0 mi SE 4.6 mph - N/A   Clear
8:15 PM 71.1 °F 57.9 °F 63% 30.07 in 10.0 mi Calm Calm - N/A   Clear
8:20 PM 70.9 °F 57.2 °F 62% 30.07 in 10.0 mi Calm Calm - N/A   Clear
8:38 PM 71.2 °F 56.1 °F 59% 30.07 in 10.0 mi Calm Calm - N/A   Clear
8:56 PM 70.7 °F 56.3 °F 60% 30.07 in 10.0 mi Calm Calm - N/A   Clear
9:15 PM 70.7 °F 56.7 °F 61% 30.08 in 10.0 mi Calm Calm - N/A   Clear
9:35 PM 68.9 °F 57.9 °F 68% 30.09 in 10.0 mi Calm Calm - N/A   Clear
9:59 PM 68.0 °F 61.7 °F 80% 30.09 in 10.0 mi Calm Calm - N/A   Clear
10:16 PM 67.8 °F 62.1 °F 82% 30.10 in 10.0 mi Calm Calm - N/A   Clear
10:35 PM 67.1 °F 62.6 °F 85% 30.10 in 10.0 mi Calm Calm - N/A   Clear
10:36 PM 67.1 °F 62.6 °F 85% 30.10 in 10.0 mi Calm Calm - N/A   Clear
10:55 PM 67.1 °F 63.1 °F 87% 30.10 in 10.0 mi Calm Calm - N/A   Mostly Cloudy
10:56 PM 67.1 °F 63.3 °F 88% 30.10 in 10.0 mi Calm Calm - N/A   Mostly Cloudy
11:15 PM 68.0 °F 63.5 °F 85% 30.10 in 10.0 mi ESE 3.5 mph - N/A   Overcast
11:56 PM 69.8 °F 55.9 °F 61% 30.09 in 10.0 mi SE 3.5 mph - N/A   Overcast